Weather History for Medford, WI

Change the Weather History Date:

Tuesday, February 12, 2013

  Actual Average Record
Temperature  
Mean Temperature 20 °F -  
Max Temperature 24 °F 22 °F 45 °F (1977)
Min Temperature 17 °F 2 °F -33 °F (1967)
Degree Days  
Heating Degree Days 44    
Moisture  
Dew Point 16 °F    
Average Humidity 83    
Maximum Humidity 93    
Minimum Humidity 74    
Precipitation  
Precipitation 0.31 in - - ()
Sea Level Pressure  
Sea Level Pressure 29.85 in    
Wind  
Wind Speed 9 mph (SW)    
Max Wind Speed 15 mph    
Max Gust Speed 17 mph    
Visibility 9 miles    
Events Snow    
Averages and records for this station are not official NWS values.
T = Trace of Precipitation, MM = Missing Value Source: NWS Daily Summary

Daily Weather History Graph

Daily Weather History Graph

Search for Another Location

Airport:

Trip Planner

Search our weather history database for the weather conditions in past years. The results will help you decide how hot, cold, wet, or windy it might be!

Date:

Astronomy

Feb. 12, 2013 Rise Set
Actual Time 7:06 AM CST 5:25 PM CST
Civil Twilight 6:35 AM CST 5:55 PM CST
Nautical Twilight 6:01 AM CST 6:30 PM CST
Astronomical Twilight 5:27 AM CST 7:04 PM CST
Moon 7:54 AM CST (2/12) 8:37 PM CST (2/12)
Length of Visible Light 11h 19m
Length of Day
10h 18m
Waxing Crescent, 7% of the Moon is Illuminated
Feb 12
Waxing Crescent
Feb 17
First Quarter
Feb 25
Full
Mar 4
Last Quarter
Mar 11
New

Hourly Weather History & Observations

Time (CST) Temp. Windchill Dew Point Humidity Pressure Visibility Wind Dir Wind Speed Gust Speed Precip Events Conditions
12:15 AM 21.2 °F 9.5 °F 17.6 °F 86% 29.89 in 10.0 mi West 11.5 mph - N/A Snow Light Snow
12:35 AM 21.2 °F 10.9 °F 17.6 °F 86% 29.89 in 10.0 mi West 9.2 mph - N/A   Overcast
12:55 AM 21.2 °F 10.1 °F 17.6 °F 86% 29.89 in 10.0 mi West 10.4 mph - N/A Snow Light Snow
1:15 AM 21.2 °F 10.1 °F 17.6 °F 86% 29.89 in 10.0 mi West 10.4 mph - 0.06 in Snow Light Snow
1:35 AM 21.2 °F 10.1 °F 17.6 °F 86% 29.89 in 10.0 mi West 10.4 mph - 0.01 in   Overcast
1:55 AM 21.2 °F 11.7 °F 17.6 °F 86% 29.89 in 10.0 mi West 8.1 mph - 0.03 in   Overcast
2:15 AM 21.2 °F 10.9 °F 15.8 °F 80% 29.90 in 10.0 mi West 9.2 mph - N/A Snow Light Snow
2:35 AM 21.2 °F 10.9 °F 15.8 °F 80% 29.91 in 10.0 mi West 9.2 mph - 0.01 in Snow Light Snow
2:55 AM 21.2 °F 10.9 °F 15.8 °F 80% 29.91 in 10.0 mi West 9.2 mph - N/A Snow Light Snow
3:15 AM 19.4 °F 7.2 °F 15.8 °F 86% 29.91 in 10.0 mi WSW 11.5 mph 16.1 mph N/A Snow Light Snow
3:35 AM 19.4 °F 9.5 °F 15.8 °F 86% 29.91 in 10.0 mi West 8.1 mph - N/A Snow Light Snow
3:55 AM 19.4 °F 7.9 °F 15.8 °F 86% 29.91 in 10.0 mi WSW 10.4 mph - N/A Snow Light Snow
4:15 AM 19.4 °F 8.6 °F 15.8 °F 86% 29.91 in 10.0 mi West 9.2 mph - N/A Snow Light Snow
4:35 AM 19.4 °F 7.9 °F 15.8 °F 86% 29.92 in 10.0 mi WSW 10.4 mph - N/A   Overcast
4:55 AM 19.4 °F 9.5 °F 14.0 °F 80% 29.92 in 10.0 mi West 8.1 mph - N/A Snow Light Snow
5:15 AM 19.4 °F 9.5 °F 15.8 °F 86% 29.92 in 10.0 mi WSW 8.1 mph - N/A Snow Light Snow
5:35 AM 17.6 °F 4.3 °F 14.0 °F 86% 29.92 in 10.0 mi WSW 12.7 mph - N/A Snow Light Snow
5:55 AM 17.6 °F 6.4 °F 14.0 °F 86% 29.93 in 10.0 mi WSW 9.2 mph - N/A   Overcast
6:15 AM 17.6 °F 6.4 °F 14.0 °F 86% 29.93 in 10.0 mi WSW 9.2 mph - N/A Snow Light Snow
6:35 AM 17.6 °F 6.4 °F 14.0 °F 86% 29.92 in 10.0 mi WSW 9.2 mph - N/A Snow Light Snow
6:55 AM 17.6 °F 6.4 °F 14.0 °F 86% 29.93 in 10.0 mi WSW 9.2 mph - N/A Snow Light Snow
7:15 AM 17.6 °F 6.4 °F 14.0 °F 86% 29.93 in 10.0 mi West 9.2 mph 16.1 mph N/A Snow Light Snow
7:35 AM 17.6 °F 3.2 °F 12.2 °F 79% 29.93 in 10.0 mi West 15.0 mph - N/A Snow Light Snow
7:55 AM 17.6 °F 6.4 °F 12.2 °F 79% 29.93 in 7.0 mi West 9.2 mph - N/A Snow Light Snow
8:15 AM 17.6 °F 6.4 °F 12.2 °F 79% 29.93 in 4.0 mi WSW 9.2 mph - N/A Snow Light Snow
8:35 AM 17.6 °F 5.0 °F 12.2 °F 79% 29.93 in 5.0 mi West 11.5 mph - N/A Snow Light Snow
8:55 AM 17.6 °F 7.3 °F 12.2 °F 79% 29.93 in 7.0 mi West 8.1 mph - N/A Snow Light Snow
9:15 AM 17.6 °F 5.7 °F 12.2 °F 79% 29.94 in 4.0 mi West 10.4 mph - N/A Snow Light Snow
9:35 AM 17.6 °F 5.7 °F 12.2 °F 79% 29.94 in 5.0 mi West 10.4 mph 17.3 mph N/A Snow Light Snow
9:55 AM 17.6 °F 5.0 °F 12.2 °F 79% 29.93 in 7.0 mi West 11.5 mph - N/A Snow Light Snow
10:15 AM 17.6 °F 6.4 °F 12.2 °F 79% 29.93 in 7.0 mi West 9.2 mph - N/A Snow Light Snow
10:35 AM 19.4 °F 6.6 °F 12.2 °F 74% 29.92 in 10.0 mi SW 12.7 mph - N/A Snow Light Snow
10:55 AM 19.4 °F 6.0 °F 12.2 °F 74% 29.91 in 10.0 mi SW 13.8 mph - N/A Snow Light Snow
11:15 AM 19.4 °F 7.9 °F 12.2 °F 74% 29.91 in 10.0 mi WSW 10.4 mph - N/A Snow Light Snow
11:35 AM 19.4 °F 8.6 °F 14.0 °F 80% 29.90 in 10.0 mi SW 9.2 mph - N/A Snow Light Snow
11:55 AM 19.4 °F 8.6 °F 15.8 °F 86% 29.90 in 10.0 mi WSW 9.2 mph - N/A   Overcast
12:15 PM 19.4 °F 7.9 °F 15.8 °F 86% 29.88 in 10.0 mi WSW 10.4 mph - N/A   Overcast
12:35 PM 21.2 °F 12.6 °F 15.8 °F 80% 29.87 in 10.0 mi WSW 6.9 mph - N/A   Overcast
12:55 PM 21.2 °F 10.9 °F 15.8 °F 80% 29.86 in 10.0 mi WSW 9.2 mph - N/A   Overcast
1:15 PM 21.2 °F 12.6 °F 17.6 °F 86% 29.85 in 10.0 mi SW 6.9 mph - N/A   Overcast
1:35 PM 23.0 °F 13.9 °F 17.6 °F 80% 29.85 in 10.0 mi SSW 8.1 mph - 0.11 in   Overcast
1:55 PM 23.0 °F 13.9 °F 17.6 °F 80% 29.84 in 10.0 mi SSW 8.1 mph - N/A   Mostly Cloudy
2:15 PM 23.0 °F 13.1 °F 17.6 °F 80% 29.83 in 10.0 mi SSW 9.2 mph - N/A   Mostly Cloudy
2:35 PM 24.8 °F 14.6 °F 17.6 °F 74% 29.83 in 10.0 mi SSW 10.4 mph - N/A   Scattered Clouds
2:55 PM 24.8 °F 14.6 °F 17.6 °F 74% 29.82 in 10.0 mi SSW 10.4 mph - N/A   Scattered Clouds
3:15 PM 24.8 °F 16.1 °F 17.6 °F 74% 29.82 in 10.0 mi South 8.1 mph - N/A   Clear
3:35 PM 24.8 °F 16.1 °F 17.6 °F 74% 29.81 in 10.0 mi South 8.1 mph - N/A   Clear
4:15 PM 24.8 °F 16.9 °F 19.4 °F 80% 29.80 in 10.0 mi South 6.9 mph - N/A   Clear
4:35 PM 24.8 °F 19.1 °F 17.6 °F 74% 29.80 in 10.0 mi South 4.6 mph - N/A   Clear
4:55 PM 24.8 °F 16.1 °F 19.4 °F 80% 29.79 in 10.0 mi South 8.1 mph - N/A   Clear
5:15 PM 24.8 °F 17.9 °F 17.6 °F 74% 29.79 in 10.0 mi South 5.8 mph - N/A   Clear
5:35 PM 24.8 °F 17.9 °F 17.6 °F 74% 29.79 in 10.0 mi South 5.8 mph - 0.06 in   Clear
5:55 PM 24.8 °F 19.1 °F 17.6 °F 74% 29.79 in 10.0 mi South 4.6 mph - 0.09 in   Clear
6:15 PM 23.0 °F 15.8 °F 17.6 °F 80% 29.80 in 10.0 mi South 5.8 mph - 0.02 in   Scattered Clouds
6:35 PM 23.0 °F 15.8 °F 17.6 °F 80% 29.79 in 10.0 mi SSW 5.8 mph - N/A   Mostly Cloudy
6:55 PM 21.2 °F 14.9 °F 17.6 °F 86% 29.79 in 10.0 mi SSW 4.6 mph - N/A   Scattered Clouds
7:15 PM 21.2 °F 14.9 °F 17.6 °F 86% 29.78 in 10.0 mi SSW 4.6 mph - N/A   Clear
7:35 PM 21.2 °F 14.9 °F 17.6 °F 86% 29.78 in 10.0 mi SSW 4.6 mph - N/A   Clear
7:55 PM 21.2 °F 12.6 °F 17.6 °F 86% 29.78 in 10.0 mi SSW 6.9 mph - N/A   Clear
8:15 PM 21.2 °F 11.7 °F 17.6 °F 86% 29.77 in 10.0 mi SW 8.1 mph - N/A   Clear
8:35 PM 21.2 °F 12.6 °F 17.6 °F 86% 29.77 in 10.0 mi SW 6.9 mph - N/A   Clear
8:55 PM 21.2 °F 13.6 °F 17.6 °F 86% 29.76 in 10.0 mi SW 5.8 mph - N/A   Clear
9:15 PM 19.4 °F 10.4 °F 17.6 °F 93% 29.76 in 10.0 mi SW 6.9 mph - N/A   Clear
9:35 PM 21.2 °F 12.6 °F 17.6 °F 86% 29.75 in 10.0 mi SW 6.9 mph - N/A   Clear
9:55 PM 21.2 °F 12.6 °F 17.6 °F 86% 29.75 in 10.0 mi SW 6.9 mph - N/A   Clear
10:15 PM 21.2 °F 12.6 °F 17.6 °F 86% 29.74 in 10.0 mi SSW 6.9 mph - 0.02 in   Clear
10:35 PM 21.2 °F 12.6 °F 19.4 °F 93% 29.74 in 10.0 mi SW 6.9 mph - N/A   Clear
10:55 PM 19.4 °F 11.5 °F 17.6 °F 93% 29.74 in 7.0 mi WSW 5.8 mph - 0.01 in   Clear
11:15 PM 19.4 °F 9.5 °F 17.6 °F 93% 29.73 in 7.0 mi SSW 8.1 mph - N/A   Clear
11:35 PM 19.4 °F 9.5 °F 17.6 °F 93% 29.72 in 5.0 mi SW 8.1 mph - N/A   Clear
11:55 PM 19.4 °F 10.4 °F 17.6 °F 93% 29.72 in 5.0 mi SW 6.9 mph - N/A   Clear